When you browse on this site, cookies collect data to enhance your experience and personalize the content and advertising you see.
Visit our Privacy Policy to learn more. By continuing to use the site, you agree to this use of cookies and data.
  • In Hungary
  • List of Countries
  • For 7 days
  • Water Temperature
  • Satellite Maps
  • Weather Map
  • News
  • Weather Widgets
  • user-avatar
    Login

    Hourly Weather Palmas

    Today, 17 January, Thursday

    Time Temperature Precipitation Wind Pressure Humidity
    00:00 +21°C° 0 mm 1 mps 671 mmHg 93%
    01:00 +21°C° 0 mm 1 mps 670 mmHg 94%
    02:00 +21°C° 0 mm 1 mps 670 mmHg 94%
    03:00 +20°C° 0 mm 1 mps 670 mmHg 95%
    04:00 +20°C° 0 mm 1 mps 670 mmHg 95%
    05:00 +20°C° 0 mm 1 mps 670 mmHg 95%
    06:00 +20°C° 0 mm 1 mps 670 mmHg 95%
    07:00 +22°C° 0.4 mm 1 mps 671 mmHg 94%
    08:00 +24°C° 0.4 mm 1 mps 671 mmHg 93%
    09:00 +25°C° 0.4 mm 2 mps 672 mmHg 93%
    10:00 +26°C° 0.7 mm 2 mps 672 mmHg 86%
    11:00 +27°C° 0.7 mm 2 mps 672 mmHg 80%
    12:00 +28°C° 0.7 mm 2 mps 672 mmHg 73%
    13:00 +28°C° 1.5 mm 2 mps 672 mmHg 77%
    14:00 +28°C° 1.5 mm 1 mps 672 mmHg 80%
    15:00 +27°C° 1.5 mm 1 mps 671 mmHg 84%
    16:00 +27°C° 0.8 mm 1 mps 671 mmHg 85%
    17:00 +26°C° 0.8 mm 1 mps 671 mmHg 86%
    18:00 +23°C° 0.8 mm 0 mps 670 mmHg 87%
    19:00 +24°C° 0.2 mm 1 mps 670 mmHg 89%
    20:00 +23°C° 0.2 mm 1 mps 670 mmHg 91%
    21:00 +21°C° 0.2 mm 1 mps 670 mmHg 93%
    22:00 +21°C° 0.3 mm 1 mps 670 mmHg 94%
    23:00 +21°C° 0.3 mm 1 mps 670 mmHg 95%

    Tomorrow, 18 January, Friday

    Time Temperature Precipitation Wind Pressure Humidity
    00:00 +21°C° 0.3 mm 1 mps 671 mmHg 96%
    01:00 +20°C° 0.1 mm 2 mps 670 mmHg 96%
    02:00 +20°C° 0.1 mm 2 mps 670 mmHg 95%
    03:00 +20°C° 0.1 mm 3 mps 670 mmHg 95%
    04:00 +20°C° 0 mm 3 mps 670 mmHg 93%
    05:00 +20°C° 0 mm 3 mps 670 mmHg 92%
    06:00 +20°C° 0 mm 3 mps 670 mmHg 91%
    07:00 +21°C° 0 mm 3 mps 670 mmHg 86%
    08:00 +24°C° 0 mm 2 mps 671 mmHg 80%
    09:00 +25°C° 0 mm 2 mps 671 mmHg 74%
    10:00 +27°C° 0 mm 2 mps 671 mmHg 66%
    11:00 +29°C° 0 mm 2 mps 671 mmHg 59%
    12:00 +30°C° 0 mm 2 mps 671 mmHg 51%
    13:00 +31°C° 0.2 mm 2 mps 671 mmHg 51%
    14:00 +31°C° 0.2 mm 2 mps 670 mmHg 51%
    15:00 +32°C° 0.2 mm 2 mps 670 mmHg 51%
    16:00 +30°C° 0.4 mm 1 mps 670 mmHg 57%
    17:00 +29°C° 0.4 mm 1 mps 669 mmHg 62%
    18:00 +28°C° 0.4 mm 1 mps 669 mmHg 68%
    19:00 +26°C° 1.5 mm 1 mps 669 mmHg 78%
    20:00 +23°C° 1.5 mm 1 mps 669 mmHg 88%
    21:00 +20°C° 1.5 mm 2 mps 669 mmHg 98%
    22:00 +20°C° 0.3 mm 2 mps 669 mmHg 98%
    23:00 +21°C° 0.3 mm 1 mps 669 mmHg 98%

    Day after tomorrow, 19 January, Saturday

    Time Temperature Precipitation Wind Pressure Humidity
    00:00 +21°C° 0.3 mm 1 mps 669 mmHg 98%
    01:00 +20°C° 0 mm 1 mps 669 mmHg 97%
    02:00 +20°C° 0 mm 1 mps 668 mmHg 96%
    03:00 +20°C° 0 mm 1 mps 667 mmHg 96%
    04:00 +20°C° 0 mm 1 mps 667 mmHg 96%
    05:00 +20°C° 0 mm 1 mps 667 mmHg 97%
    06:00 +19°C° 0 mm 1 mps 668 mmHg 97%
    07:00 +21°C° 0.1 mm 1 mps 668 mmHg 90%
    08:00 +24°C° 0.1 mm 1 mps 669 mmHg 83%
    09:00 +26°C° 0.1 mm 1 mps 670 mmHg 76%
    10:00 +26°C° 1 mm 1 mps 670 mmHg 81%
    11:00 +26°C° 1 mm 1 mps 670 mmHg 86%
    12:00 +26°C° 1 mm 1 mps 670 mmHg 90%
    13:00 +26°C° 1.2 mm 1 mps 669 mmHg 91%
    14:00 +26°C° 1.2 mm 1 mps 669 mmHg 91%
    15:00 +26°C° 1.2 mm 1 mps 668 mmHg 91%
    16:00 +25°C° 1.3 mm 1 mps 668 mmHg 93%
    17:00 +25°C° 1.3 mm 1 mps 668 mmHg 94%
    18:00 +24°C° 1.3 mm 1 mps 668 mmHg 95%
    19:00 +23°C° 2.2 mm 1 mps 668 mmHg 96%
    20:00 +22°C° 2.2 mm 1 mps 668 mmHg 97%
    21:00 +21°C° 2.2 mm 1 mps 668 mmHg 97%
    22:00 +20°C° 0.5 mm 1 mps 669 mmHg 98%
    23:00 +20°C° 0.5 mm 1 mps 669 mmHg 98%

    20 January, Sunday

    Time Temperature Precipitation Wind Pressure Humidity
    00:00 +19°C° 0.5 mm 2 mps 669 mmHg 98%
    01:00 +19°C° 0.1 mm 2 mps 668 mmHg 98%
    02:00 +19°C° 0.1 mm 3 mps 668 mmHg 97%
    03:00 +19°C° 0.1 mm 3 mps 668 mmHg 97%
    04:00 +19°C° 0 mm 3 mps 668 mmHg 95%
    05:00 +18°C° 0 mm 3 mps 668 mmHg 93%
    06:00 +18°C° 0 mm 3 mps 668 mmHg 92%
    07:00 +20°C° 0 mm 3 mps 669 mmHg 86%
    08:00 +21°C° 0 mm 3 mps 670 mmHg 80%
    09:00 +22°C° 0 mm 3 mps 671 mmHg 74%
    10:00 +25°C° 0 mm 3 mps 671 mmHg 69%
    11:00 +27°C° 0 mm 3 mps 671 mmHg 65%
    12:00 +28°C° 0 mm 2 mps 671 mmHg 60%
    13:00 +27°C° 0.7 mm 2 mps 670 mmHg 67%
    14:00 +27°C° 0.7 mm 2 mps 670 mmHg 73%
    15:00 +26°C° 0.7 mm 1 mps 669 mmHg 80%
    16:00 +26°C° 0.4 mm 1 mps 669 mmHg 82%
    17:00 +25°C° 0.4 mm 1 mps 669 mmHg 84%
    18:00 +25°C° 0.4 mm 1 mps 668 mmHg 86%
    19:00 +24°C° 0.2 mm 1 mps 668 mmHg 90%
    20:00 +22°C° 0.2 mm 1 mps 668 mmHg 94%
    21:00 +21°C° 0.2 mm 1 mps 668 mmHg 98%
    22:00 +20°C° 0 mm 2 mps 668 mmHg 98%
    23:00 +19°C° 0 mm 2 mps 669 mmHg 98%

    21 January, Monday

    Time Temperature Precipitation Wind Pressure Humidity
    00:00 +19°C° 0 mm 3 mps 669 mmHg 97%
    01:00 +19°C° 0 mm 3 mps 668 mmHg 97%
    02:00 +19°C° 0 mm 2 mps 668 mmHg 97%
    03:00 +19°C° 0 mm 2 mps 668 mmHg 97%
    04:00 +19°C° 0 mm 2 mps 668 mmHg 97%
    05:00 +18°C° 0 mm 2 mps 668 mmHg 97%
    06:00 +19°C° 0 mm 1 mps 668 mmHg 97%
    07:00 +20°C° 0 mm 2 mps 668 mmHg 91%
    08:00 +23°C° 0 mm 2 mps 669 mmHg 85%
    09:00 +24°C° 0 mm 2 mps 670 mmHg 78%
    10:00 +26°C° 0 mm 2 mps 670 mmHg 70%
    11:00 +28°C° 0 mm 2 mps 670 mmHg 61%
    12:00 +30°C° 0 mm 3 mps 670 mmHg 53%
    13:00 +29°C° 0.4 mm 3 mps 670 mmHg 61%
    14:00 +28°C° 0.4 mm 3 mps 669 mmHg 69%
    15:00 +27°C° 0.4 mm 3 mps 668 mmHg 78%
    16:00 +27°C° 0.7 mm 2 mps 668 mmHg 82%
    17:00 +26°C° 0.7 mm 2 mps 668 mmHg 86%
    18:00 +25°C° 0.7 mm 1 mps 668 mmHg 89%
    19:00 +24°C° 0.1 mm 1 mps 668 mmHg 92%
    20:00 +22°C° 0.1 mm 1 mps 668 mmHg 94%
    21:00 +19°C° 0.1 mm 0 mps 669 mmHg 97%
    22:00 +19°C° 0 mm 0 mps 669 mmHg 97%
    23:00 +20°C° 0 mm 1 mps 669 mmHg 96%

    22 January, Tuesday

    Time Temperature Precipitation Wind Pressure Humidity
    00:00 +20°C° 0 mm 1 mps 669 mmHg 96%
    01:00 +20°C° 0 mm 1 mps 668 mmHg 96%
    02:00 +20°C° 0 mm 1 mps 668 mmHg 96%
    03:00 +20°C° 0 mm 1 mps 668 mmHg 96%
    04:00 +20°C° 0 mm 1 mps 668 mmHg 97%
    05:00 +20°C° 0 mm 1 mps 668 mmHg 97%
    06:00 +20°C° 0 mm 1 mps 669 mmHg 98%
    07:00 +22°C° 0.2 mm 1 mps 669 mmHg 94%
    08:00 +23°C° 0.2 mm 2 mps 670 mmHg 91%
    09:00 +25°C° 0.2 mm 2 mps 670 mmHg 87%
    10:00 +27°C° 0.3 mm 2 mps 671 mmHg 76%
    11:00 +28°C° 0.3 mm 2 mps 671 mmHg 65%
    12:00 +30°C° 0.3 mm 3 mps 671 mmHg 54%
    13:00 +30°C° 0 mm 3 mps 670 mmHg 53%
    14:00 +31°C° 0 mm 3 mps 670 mmHg 52%
    15:00 +31°C° 0 mm 3 mps 670 mmHg 51%
    16:00 +30°C° 0.2 mm 2 mps 669 mmHg 56%
    17:00 +29°C° 0.2 mm 2 mps 669 mmHg 62%
    18:00 +28°C° 0.2 mm 1 mps 669 mmHg 68%
    19:00 +26°C° 0 mm 1 mps 669 mmHg 75%
    20:00 +24°C° 0 mm 1 mps 669 mmHg 82%
    21:00 +20°C° 0 mm 0 mps 669 mmHg 90%
    22:00 +22°C° 0 mm 1 mps 669 mmHg 90%
    23:00 +21°C° 0 mm 1 mps 669 mmHg 89%
    Show more